Hourly Data Report for October 09, 2014

All times are specified in Local Standard Time (LST). Add 1 hour to adjust for Daylight Saving Time where and when it is observed.

CHARLOTTETOWN A
PRINCE EDWARD ISLAND

46°17'21.000" N
63°07'09.000" W
48.50 m
8300301
71706
YYG

Download Data

Hourly Data (October 2014)
Hourly Data Report for October 9, 2014
Temp Definition
°C
Dew Point Temp Definition
°C
Rel Hum Definition
%
Wind Dir Definition
10's deg

Wind Spd Definition
km/h
Visibility Definition
km
Stn Press Definition
kPa
Hmdx Definition


Wind Chill Definition


Weather Definition


TIME
00:00 Legend Double Dagger 15.5 14.4 93 24 14 24.1 100.00     Rain Showers
01:00 Legend Double Dagger 14.4 13.5 94 22 9 24.1 100.03     LegendNANA
02:00 Legend Double Dagger 14.1 13.3 95 24 11 24.1 100.02     Mainly Clear
03:00 Legend Double Dagger 13.5 13.0 97 21 7 24.1 100.00     Rain Showers
04:00 Legend Double Dagger 13.6 13.0 96 23 11 24.1 100.01     LegendNANA
05:00 Legend Double Dagger 13.6 12.7 94 24 15 24.1 100.07     Cloudy
06:00 Legend Double Dagger 12.4 11.9 97 22 7 19.3 100.11     LegendNANA
07:00 Legend Double Dagger 11.7 11.2 97 17 8 9.7 100.11     Fog
08:00 Legend Double Dagger 14.0 11.9 87 23 15 24.1 100.19     Mostly Cloudy
09:00 Legend Double Dagger 14.4 9.7 73 25 9 24.1 100.16     LegendNANA
10:00 Legend Double Dagger 14.3 12.0 86 23 17 24.1 100.17     LegendNANA
11:00 Legend Double Dagger 14.6 8.8 68 24 26 24.1 100.20     Mostly Cloudy
12:00 Legend Double Dagger 13.4 7.2 66 25 13 24.1 100.21     LegendNANA
13:00 Legend Double Dagger 14.7 6.8 59 23 25 24.1 100.15     LegendNANA
14:00 Legend Double Dagger 14.9 6.3 56 24 26 24.1 100.14     Mainly Clear
15:00 Legend Double Dagger 15.0 2.9 44 23 32 24.1 100.17     LegendNANA
16:00 Legend Double Dagger 14.5 4.3 50 23 22 24.1 100.20     LegendNANA
17:00 Legend Double Dagger 13.3 4.8 56 24 19 24.1 100.22     Mainly Clear
18:00 Legend Double Dagger 11.8 5.5 65 24 18 24.1 100.28     LegendNANA
19:00 Legend Double Dagger 11.2 5.1 66 23 13 24.1 100.32     LegendNANA
20:00 Legend Double Dagger 10.4 5.4 71 22 11 24.1 100.33     Mainly Clear
21:00 Legend Double Dagger 10.3 6.5 77 22 11 24.1 100.36     LegendNANA
22:00 Legend Double Dagger 10.6 7.5 81 23 13 24.1 100.35     LegendNANA
23:00 Legend Double Dagger 10.7 7.6 81 23 11 24.1 100.38     Mostly Cloudy

Notes on Data Quality.

Legend

  • E = Estimated
  • M = Missing
  • NA = Not Available
  • ‡ = Partner data that is not subject to review by the National Climate Archives
Date modified: